Wind_Speed
58 60 62 67 70 75 77 82 86 87 81 81 81 85 90 83 82 84 83 85 84 83 86 84 81 79 79 80 75 73 69 70 69 63 58 64 66 64 59 56 56 59 57 54 57
54 57 59 63 68 71 75 79 81 83 89 88 82 83 85 92 90 83 84 88 89 85 82 84 82 86 80 80 81 81 72 66 70 70 63 62 68 73 69 65 63 62 62 61 64
47 54 58 60 63 70 74 78 82 82 86 89 88 88 85 88 95 92 85 85 88 89 86 86 83 83 84 83 79 77 73 76 74 75 76 71 70 71 73 73 66 64 64 64 67
42 49 55 61 62 65 68 76 79 86 88 94 88 91 90 88 94 92 91 90 84 88 88 89 90 86 82 82 89 85 74 78 77 77 79 78 75 73 73 68 69 68 69 69 75
35 42 51 59 64 67 68 70 74 82 87 94 97 91 88 91 87 97 98 92 91 89 91 92 92 92 87 89 89 80 82 85 82 83 80 80 76 73 74 72 74 73 74 72 72
40 43 45 49 58 67 72 74 75 76 79 87 95 100 101 90 91 93 89 96 97 97 95 97 95 97 93 94 90 84 88 87 84 82 81 81 74 76 70 73 75 74 74 76 72
51 51 52 54 55 56 63 74 79 80 82 82 87 97 97 98 103 97 92 94 97 96 91 93 94 93 87 87 86 92 94 91 76 70 67 74 76 76 70 77 76 77 78 77 73
59 61 62 63 63 64 65 66 69 78 86 87 88 88 88 95 101 103 99 98 97 98 97 96 97 91 87 86 88 87 92 83 73 79 75 83 79 73 79 84 81 79 79 79 75
64 67 69 71 72 73 74 75 75 74 75 81 90 92 90 94 96 100 105 103 104 101 102 101 102 97 94 90 88 86 84 81 79 81 82 90 87 73 81 84 81 79 74 75 71
56 64 72 77 80 81 84 84 83 83 82 82 83 84 92 94 98 96 99 102 104 108 105 105 106 104 98 91 85 90 96 89 86 87 90 93 91 77 79 82 79 77 75 75 73
46 52 63 75 82 85 88 91 93 93 90 92 93 88 87 91 95 97 101 101 102 102 103 107 111 104 93 96 95 97 94 93 92 92 95 99 98 82 78 78 75 73 76 76 75
50 49 53 59 70 84 93 96 99 102 98 99 102 99 97 98 92 93 95 100 102 102 104 109 108 93 96 100 103 99 96 91 88 90 88 95 95 87 80 76 79 77 75 81 77
55 52 57 62 70 78 88 102 105 105 105 108 110 106 107 106 102 99 99 100 100 102 103 107 89 91 98 101 97 91 87 90 89 89 86 91 93 84 80 79 76 78 76 74 75
58 57 61 67 71 77 79 84 89 97 102 110 114 115 114 114 110 111 107 105 103 101 106 104 89 91 96 96 91 89 84 90 87 88 81 92 80 74 75 73 73 72 74 72 70
62 62 66 80 78 74 73 72 75 78 90 102 106 107 114 118 116 117 115 113 109 109 112 93 97 100 98 81 87 76 83 85 83 82 80 78 76 58 69 64 65 63 62 62 63
63 69 82 78 74 72 65 66 70 73 85 89 89 95 102 112 116 116 119 120 118 117 114 100 102 101 93 87 88 79 79 84 80 80 73 58 67 44 49 52 47 46 47 49 50
65 77 80 72 63 50 47 49 54 63 70 80 82 86 86 97 103 107 118 122 121 123 118 109 114 106 99 93 89 84 81 79 79 70 53 50 53 36 39 36 30 36 39 43 46
71 77 76 68 59 46 37 37 43 48 50 58 65 75 82 94 99 102 103 104 114 124 124 117 120 111 100 97 93 92 85 80 73 63 53 46 38 39 39 35 32 35 37 42 45
73 75 72 60 50 45 38 32 32 35 41 48 57 62 68 78 81 93 99 98 101 106 113 118 121 117 115 107 103 93 98 75 76 71 67 54 52 44 39 40 37 37 37 38 40
76 79 75 57 47 38 35 32 29 28 30 36 46 52 55 60 68 75 81 93 102 103 99 104 107 114 112 112 109 106 92 88 81 75 66 54 54 48 41 43 39 34 34 36 35
77 80 77 62 51 41 35 29 26 25 26 28 32 40 47 51 56 62 68 77 82 93 98 99 90 97 106 109 107 109 100 97 84 79 68 59 57 51 46 41 45 30 34 32 26
77 86 84 74 57 47 38 30 24 20 21 24 26 28 34 40 46 54 61 63 67 77 82 92 95 94 88 98 106 107 103 96 89 77 69 64 60 52 47 39 40 31 30 24 16
82 83 85 83 71 52 44 35 25 20 18 20 21 24 27 32 38 43 49 56 58 61 66 74 78 87 92 91 87 95 95 95 88 81 70 64 58 56 47 43 40 28 29 22 17
78 81 88 85 75 59 49 39 29 22 18 15 15 17 20 24 29 34 37 38 44 49 55 58 65 73 82 92 91 89 87 87 86 83 72 63 63 55 49 47 42 31 29 22 17
79 78 83 86 83 68 52 41 33 25 20 13 10 11 13 17 20 23 26 31 35 42 47 52 54 58 69 85 88 84 81 85 81 74 73 63 61 58 50 52 37 34 29 24 19
78 77 82 86 86 77 61 46 35 29 22 17 10 7 7 9 13 17 21 25 29 33 37 40 45 52 60 71 77 76 77 75 77 73 70 66 62 63 53 49 38 35 34 27 24
80 75 76 80 84 82 69 53 39 31 24 19 13 7 5 4 7 10 15 19 25 31 32 35 43 51 54 66 76 69 69 66 67 71 68 66 66 61 53 55 40 32 30 25 22
Wind_Direction
236 235 237 237 237 236 236 234 235 236 241 241 241 239 236 237 238 241 242 243 243 244 244 244 243 242 244 247 245 248 249 249 255 258 262 262 262 261 261 265 271 273 282 287 290
238 239 238 238 238 238 239 237 238 238 238 243 240 241 238 237 237 239 241 245 244 243 245 245 246 246 245 245 246 248 247 250 254 259 259 261 262 263 263 264 270 275 278 284 287
245 244 243 240 241 239 239 239 238 238 238 240 241 243 242 239 237 238 240 242 244 244 247 244 246 246 247 246 251 251 250 250 250 253 256 258 262 265 265 266 269 274 275 282 288
251 250 249 248 246 243 242 240 241 239 239 237 238 245 245 246 241 240 243 245 248 246 246 249 251 251 249 249 248 249 252 252 251 253 253 257 260 265 269 271 272 274 277 278 281
259 254 252 248 247 245 245 243 244 243 240 239 239 240 245 249 247 239 243 247 250 252 250 249 250 251 251 251 252 252 256 255 254 256 260 262 263 267 270 272 272 273 277 279 281
268 259 257 253 250 247 245 244 245 243 242 243 243 243 241 242 246 248 243 246 249 250 252 252 250 249 250 252 256 257 255 258 257 258 263 265 266 267 270 273 273 273 275 279 284
268 265 262 254 252 251 250 248 246 244 244 244 243 243 244 245 246 246 245 246 247 248 249 249 249 248 249 251 252 252 254 256 256 262 265 264 263 268 268 269 271 273 277 282 282
267 264 260 257 257 253 249 249 249 248 246 244 244 243 242 244 246 247 244 242 245 247 249 249 247 247 249 246 247 250 252 256 260 261 261 265 262 267 268 270 273 277 280 282 281
269 264 260 257 254 252 253 251 247 246 246 247 247 244 243 244 245 246 245 246 248 247 246 245 247 248 249 248 248 249 251 254 259 261 261 262 263 265 269 271 273 275 277 275 278
274 265 262 259 256 253 251 249 250 250 247 245 245 244 245 245 245 244 245 245 246 248 247 246 246 246 248 253 259 255 255 256 253 262 263 262 263 264 265 269 273 276 276 277 277
297 277 264 257 254 254 254 252 249 246 246 247 247 243 241 242 242 245 245 243 243 244 246 246 246 249 252 252 250 251 254 255 255 261 263 260 263 269 271 273 275 277 278 278 279
306 292 278 267 260 254 251 250 249 247 245 245 244 244 243 241 240 240 241 243 243 244 244 246 250 251 246 250 251 252 255 258 258 258 260 259 261 265 270 272 275 276 272 281 284
313 300 288 278 269 262 255 250 250 248 246 245 243 242 243 242 242 239 241 241 243 244 244 247 247 244 249 251 252 254 254 254 254 250 253 259 260 266 270 271 273 267 275 276 279
315 304 296 289 278 269 262 260 259 256 251 248 245 244 242 242 240 241 240 240 243 242 244 243 243 245 247 250 253 254 254 252 252 253 261 263 266 269 260 265 263 271 275 278 279
318 310 302 290 285 281 278 272 265 260 257 254 251 248 247 244 244 242 242 242 240 242 244 243 242 243 244 247 248 250 247 252 253 256 257 261 265 259 264 266 270 276 278 278 277
323 318 309 302 299 295 285 274 267 260 252 251 249 247 247 248 247 246 242 243 241 242 243 242 244 243 245 241 246 244 247 250 251 253 257 260 263 265 266 267 278 277 280 279 279
329 327 316 313 310 302 289 275 265 255 254 252 249 248 245 245 245 246 245 244 243 243 242 240 242 242 243 245 245 245 246 249 251 256 263 254 261 254 261 272 277 278 279 282 286
337 336 326 326 322 316 301 281 265 265 259 256 252 249 245 243 239 239 242 242 243 243 242 239 241 240 240 242 243 242 242 245 253 255 255 251 260 252 260 272 278 281 284 287 289
345 345 335 332 328 324 316 301 281 263 250 243 242 241 241 243 241 239 239 240 241 241 239 239 241 239 240 237 238 240 242 244 246 250 253 255 259 257 264 270 275 279 282 289 288
350 352 349 340 339 333 321 309 297 282 263 251 249 246 241 239 240 240 237 237 236 238 239 238 236 238 240 240 240 240 240 241 243 246 251 249 254 255 258 268 273 273 280 288 281
353 358 355 353 350 348 338 321 309 295 276 256 246 246 245 241 239 239 238 236 235 237 237 237 233 233 233 237 237 238 239 241 241 239 241 243 248 251 257 261 271 276 278 280 268
356 357 2 1 359 354 349 336 323 307 285 269 257 250 247 242 238 236 236 236 236 235 231 233 234 230 227 231 229 232 234 236 239 242 245 245 242 248 257 261 261 273 276 267 225
355 359 2 5 1 360 356 350 340 323 302 279 264 256 250 244 239 235 233 235 234 234 232 233 231 226 223 225 228 231 232 233 233 231 234 238 241 247 246 250 253 263 270 227 213
357 357 1 6 5 3 2 356 350 343 325 298 273 261 254 247 242 237 235 233 230 230 231 229 226 223 221 218 219 221 222 226 227 229 231 234 237 241 239 242 250 252 266 205 206
358 358 1 5 6 5 6 1 356 354 341 325 299 278 261 251 242 236 232 224 216 217 219 220 218 216 216 216 215 214 215 217 220 222 225 227 235 237 235 241 240 254 221 205 208
359 358 359 3 8 7 6 7 2 358 352 343 331 308 282 253 239 226 220 215 213 210 209 208 208 210 209 212 212 210 210 212 211 212 214 217 224 233 230 235 229 245 210 209 220
1 358 357 2 6 9 8 6 4 4 2 354 351 345 337 281 233 220 208 207 195 200 197 197 199 201 200 202 205 201 204 204 206 207 209 213 221 229 224 232 229 241 207 214 230
Height
10724 10728 10732 10735 10739 10743 10747 10751 10755 10759 10763 10769 10774 10778 10783 10788 10792 10800 10807 10802 10811 10815 10821 10825 10829 10832 10838 10845 10844 10843 10856 10865 10862 10861 10863 10862 10862 10865 10869 10872 10871 10871 10868 10864 10864
10716 10719 10721 10724 10727 10731 10734 10737 10741 10745 10750 10755 10759 10763 10767 10773 10778 10790 10782 10793 10797 10803 10807 10810 10814 10819 10828 10831 10832 10833 10846 10853 10847 10849 10854 10853 10852 10855 10858 10863 10863 10861 10861 10857 10855
10708 10710 10712 10713 10715 10718 10720 10723 10727 10730 10735 10739 10743 10748 10752 10757 10761 10767 10776 10777 10784 10789 10792 10796 10800 10808 10816 10816 10817 10820 10839 10835 10838 10837 10839 10842 10845 10845 10846 10852 10855 10855 10850 10850 10846
10699 10700 10701 10703 10704 10705 10706 10709 10712 10715 10719 10722 10727 10729 10735 10739 10744 10759 10760 10761 10763 10767 10775 10780 10786 10794 10801 10803 10798 10807 10824 10819 10825 10824 10827 10832 10833 10838 10836 10841 10841 10841 10841 10842 10836
10691 10689 10688 10688 10689 10690 10693 10695 10696 10698 10702 10705 10709 10714 10717 10724 10734 10738 10740 10745 10748 10751 10758 10764 10773 10775 10789 10785 10781 10804 10807 10799 10812 10811 10816 10818 10826 10828 10829 10825 10825 10830 10829 10827 10831
10679 10677 10675 10674 10673 10674 10675 10676 10679 10681 10684 10687 10691 10694 10701 10715 10707 10711 10730 10730 10731 10732 10738 10747 10759 10757 10768 10771 10773 10787 10782 10789 10796 10804 10806 10805 10813 10810 10819 10811 10813 10814 10818 10815 10823
10664 10662 10660 10658 10657 10657 10656 10657 10659 10662 10665 10668 10671 10675 10686 10693 10685 10689 10709 10709 10711 10713 10724 10730 10734 10735 10758 10760 10768 10763 10765 10777 10792 10793 10800 10784 10798 10804 10805 10794 10801 10805 10807 10808 10813
10646 10644 10642 10640 10640 10639 10637 10637 10638 10640 10643 10647 10650 10656 10668 10660 10663 10674 10680 10691 10689 10694 10702 10708 10708 10723 10731 10745 10739 10749 10750 10772 10786 10776 10783 10765 10788 10795 10786 10783 10791 10795 10799 10800 10802
10626 10622 10620 10619 10617 10616 10615 10615 10616 10618 10620 10624 10626 10635 10642 10639 10644 10647 10656 10670 10670 10676 10681 10684 10686 10703 10709 10723 10728 10742 10752 10760 10759 10753 10764 10753 10762 10782 10775 10774 10783 10785 10789 10788 10789
10604 10601 10598 10596 10593 10592 10590 10588 10591 10594 10599 10600 10601 10611 10609 10621 10621 10630 10631 10641 10647 10651 10660 10664 10662 10674 10692 10710 10730 10728 10716 10735 10746 10744 10741 10743 10748 10770 10768 10763 10772 10775 10773 10775 10775
10585 10579 10574 10571 10567 10566 10564 10562 10563 10563 10571 10573 10574 10585 10589 10590 10599 10603 10609 10617 10624 10631 10637 10635 10632 10664 10699 10686 10693 10689 10709 10728 10734 10730 10724 10727 10731 10755 10754 10755 10758 10761 10756 10758 10760
10568 10561 10553 10547 10540 10537 10535 10530 10529 10531 10545 10545 10544 10554 10560 10560 10575 10581 10582 10589 10598 10609 10610 10606 10634 10668 10645 10661 10665 10680 10700 10710 10715 10709 10704 10713 10721 10735 10743 10746 10745 10743 10742 10743 10746
10551 10542 10533 10524 10514 10506 10499 10497 10496 10499 10513 10509 10512 10526 10528 10534 10548 10554 10557 10562 10572 10582 10586 10586 10640 10620 10630 10636 10650 10671 10685 10685 10692 10681 10689 10707 10709 10733 10727 10728 10733 10724 10733 10732 10731
10535 10524 10511 10497 10487 10473 10470 10468 10469 10475 10484 10475 10478 10491 10498 10502 10520 10520 10531 10539 10549 10560 10556 10574 10603 10611 10610 10624 10639 10652 10661 10658 10672 10671 10699 10682 10711 10724 10706 10714 10711 10721 10718 10720 10718
10517 10504 10489 10462 10455 10451 10446 10443 10443 10448 10447 10435 10457 10464 10470 10477 10488 10493 10507 10514 10528 10532 10525 10580 10579 10583 10592 10625 10612 10646 10621 10644 10656 10666 10676 10683 10690 10718 10698 10698 10705 10711 10707 10704 10703
10500 10483 10455 10441 10429 10413 10410 10406 10406 10410 10401 10406 10417 10428 10440 10453 10457 10469 10482 10489 10500 10505 10515 10556 10552 10559 10585 10596 10599 10616 10621 10626 10639 10651 10663 10683 10673 10703 10682 10685 10700 10698 10695 10692 10691
10483 10459 10430 10413 10398 10388 10379 10375 10372 10370 10373 10372 10390 10401 10417 10420 10426 10436 10445 10458 10473 10481 10500 10531 10519 10544 10561 10576 10588 10598 10605 10614 10622 10642 10671 10659 10671 10686 10670 10685 10690 10687 10686 10684 10681
10467 10441 10410 10389 10374 10365 10358 10354 10349 10349 10357 10356 10364 10370 10378 10379 10390 10401 10412 10429 10438 10451 10468 10495 10494 10523 10555 10564 10572 10576 10588 10600 10619 10635 10647 10651 10668 10669 10668 10675 10679 10679 10679 10676 10674
10454 10430 10400 10380 10364 10350 10343 10337 10333 10333 10333 10333 10332 10338 10348 10352 10369 10372 10389 10402 10411 10418 10436 10463 10475 10500 10510 10536 10544 10569 10559 10609 10607 10618 10628 10647 10653 10658 10661 10666 10671 10670 10670 10671 10667
10442 10416 10393 10372 10356 10343 10333 10325 10321 10318 10319 10320 10322 10324 10330 10336 10341 10349 10360 10372 10379 10390 10410 10429 10456 10478 10496 10514 10531 10539 10571 10578 10593 10607 10624 10636 10643 10648 10656 10656 10662 10664 10664 10663 10661
10432 10414 10388 10364 10347 10336 10326 10318 10312 10308 10306 10306 10307 10310 10314 10320 10325 10331 10340 10345 10359 10371 10389 10405 10433 10451 10471 10485 10511 10522 10548 10560 10583 10594 10611 10626 10631 10640 10647 10654 10653 10659 10659 10658 10657
10427 10405 10381 10361 10344 10331 10321 10313 10306 10301 10299 10298 10298 10299 10302 10306 10311 10315 10319 10330 10341 10347 10362 10373 10402 10426 10452 10459 10477 10499 10526 10547 10564 10591 10603 10611 10622 10633 10638 10646 10646 10651 10653 10654 10654
10420 10405 10389 10367 10347 10329 10316 10309 10302 10297 10294 10292 10291 10290 10291 10294 10297 10302 10308 10312 10325 10336 10347 10359 10382 10401 10425 10440 10469 10487 10515 10533 10555 10562 10586 10599 10613 10621 10631 10634 10640 10647 10647 10650 10650
10426 10406 10383 10366 10348 10331 10317 10306 10300 10294 10290 10288 10285 10284 10284 10285 10289 10293 10300 10309 10317 10327 10336 10348 10359 10377 10400 10416 10435 10458 10490 10516 10536 10556 10580 10591 10596 10612 10621 10626 10633 10641 10642 10645 10646
10422 10407 10390 10371 10349 10331 10318 10308 10299 10293 10289 10286 10283 10281 10281 10282 10283 10287 10292 10298 10305 10312 10321 10332 10350 10368 10382 10397 10422 10449 10473 10494 10523 10552 10566 10584 10590 10600 10611 10618 10628 10633 10637 10639 10642
10425 10408 10388 10371 10355 10337 10321 10308 10300 10294 10289 10286 10283 10280 10279 10280 10282 10284 10288 10293 10301 10308 10317 10329 10345 10358 10374 10393 10418 10444 10464 10490 10512 10534 10554 10567 10579 10584 10602 10612 10618 10625 10631 10634 10639
10425 10411 10396 10380 10362 10343 10326 10312 10303 10296 10291 10287 10284 10281 10279 10280 10282 10285 10288 10293 10299 10304 10315 10327 10337 10348 10366 10381 10405 10441 10468 10492 10515 10529 10546 10559 10566 10579 10595 10600 10612 10621 10627 10630 10635